Погода в Чёбсаре

Россия / Вологодская область     59°12′03″N   38°50′06″E
темп.,
°C
ветер,
м/с
пор.,
м/с
влажн.,
%
обл.,
%
осадки,
мм/ч
давл.,
гПа
погр.,
м
29 июня, ср
ср2900:00+8всв35703 0.0 102678
03:00+7всв22775 0.0 102714
06:00+11всв24710 0.0 1026127
09:00+16св23500 0.0 1025796
12:00+19ссв23400 0.0 10241388
15:00+20с23370 0.0 10231567
18:00+20ссз1351100 0.0 10211286
21:00+14с227072 0.0 102115
30 июня, чт
чт3000:00+11с227147 0.0 102114
03:00+9ссз22715 0.0 102116
06:00+12ссз26715 0.0 1020143
09:00+18ссз4756100 0.0 1020598
12:00+20с4750100 0.0 10191063
15:00+23с594962 0.0 10181951
18:00+21ссв48585 0.0 10181017
21:00+16с33760 0.0 101949
1 июля, пт
пт100:00+12всв22825 0.0 102015
03:00+10всв22706 0.0 102118
06:00+13всв127168 0.0 102175
09:00+19св125166 0.0 1022550
12:00+22с23395 0.0 10211380
15:00+23с24385 0.0 10211595
18:00+24з13495 0.0 10191217
21:00+17зюз226857 0.0 101915
2 июля, сб
сб200:00+16зюз236274 0.0 101946
03:00+14зсз248998 0.1 101960
06:00+17сз37885 0.0 1018206
09:00+22с47715 0.0 1017698
12:00+25ссв56525 0.0 10171676
15:00+26с46482 0.0 10162037
18:00+24с47550 0.0 1016808
21:00+18св33741 0.0 101631
3 июля, вс
вс300:00+15всв22763 0.0 101716
03:00+12вюв11885 0.0 101710
06:00+16сз01795 0.0 101767
09:00+21с23600 0.0 1016535
12:00+24ссз24450 0.0 10151303
15:00+26с35412 0.0 10141675
18:00+26с24540 0.0 1014468
21:00+20с116486 0.0 101411